Flag for Trinidad and Tobago Weather past 2 weeks in Scarborough, Trinidad and Tobago

82 °F

Light rain. Passing clouds.

Feels Like: 88 °F
Forecast: N/A
Wind: 10 mph from East

Location: Crown Pt./ Scarborou

Current Time: Oct 8, 2015 at 4:43:17 PM

Latest Report: Oct 8, 2015 at 4:00 PM

Visibility: N/A

Pressure: 29.89 "Hg

Humidity: 74%

Dew point: 73 °F

Location of ScarboroughLocation

Historic Weather in Scarborough — Graph


Scarborough temperature yesterday

Maximum temperature yesterday: 88 °F (at 11:00 AM)
Minimum temperature yesterday: 79 °F (at 11:00 PM)
Average temperature yesterday: 83 °F

Past Weeks' High & Low Weather Summary

High90 °F (Sep 25, 2:00 PM)94% (Sep 27, 11:00 PM)30.01 "Hg (Sep 27, 11:00 PM)
Low73 °F (Oct 6, 6:00 AM)59% (Sep 28, 3:00 PM)29.77 "Hg (Sep 30, 6:00 PM)
Average83 °F76%29.89 "Hg
* Reported Sep 23 3:00 PM — Oct 8 3:00 PM, Scarborough, Weather by CustomWeather, © 2015

Note: Actual official high and low records may vary slightly from our data, if they occured in-between our weather recording intervals... More about our weather records


Scarborough weather history for previous 24 hours

Time TempWeatherWind HumidityBarometerVisibility
3:00 PM
Thu, Oct 8
82 °FScattered clouds.13 mph70%29.86 "HgN/A
2:00 PM84 °FScattered clouds.21 mph70%29.86 "HgN/A
1:00 PM81 °FPassing clouds.24 mph74%29.92 "HgN/A
12:00 PM79 °FScattered showers. Scattered clouds.41 mph79%29.95 "HgN/A
11:45 AM77 °FRain showers. Scattered clouds.43 mph83%29.98 "Hg2 mi
11:16 AM84 °FLots of rain. Partly sunny.48 mph70%30.01 "Hg1 mi
11:00 AM86 °FScattered showers. Cloudy.20 mph70%29.98 "HgN/A
10:00 AM82 °FLight rain. Passing clouds.5 mph79%29.98 "HgN/A
9:00 AM77 °FLight rain. Passing clouds.5 mph83%29.98 "HgN/A
8:00 AM77 °FScattered showers. Scattered clouds.9 mph89%29.98 "HgN/A
7:00 AM77 °FSprinkles. Scattered clouds.3 mph89%29.95 "Hg5 mi
6:00 AM75 °FScattered showers. Scattered clouds.No wind94%29.89 "HgN/A
5:00 AM77 °FSprinkles. Passing clouds.5 mph89%29.92 "Hg3 mi
4:00 AM79 °FPassing clouds.No wind89%29.89 "HgN/A
3:00 AM79 °FScattered showers. Passing clouds.No wind89%29.89 "HgN/A
2:00 AM79 °FPassing clouds.No wind89%29.89 "HgN/A
1:00 AM79 °FPassing clouds.3 mph89%29.89 "HgN/A
12:00 AM79 °FScattered showers. Passing clouds.3 mph89%29.92 "HgN/A
11:00 PM
Wed, Oct 7
79 °FPassing clouds.No wind89%29.92 "HgN/A
10:00 PM81 °FPassing clouds.3 mph84%29.95 "HgN/A
9:00 PM81 °FPassing clouds.3 mph84%29.92 "HgN/A
8:00 PM82 °FPassing clouds.No wind84%29.92 "HgN/A
7:00 PM82 °FPassing clouds.5 mph74%29.89 "HgN/A
6:00 PM84 °FPassing clouds.3 mph70%29.89 "HgN/A
5:00 PM86 °FPassing clouds.9 mph66%29.86 "HgN/A
4:00 PM86 °FPassing clouds.12 mph70%29.86 "HgN/A
Weather by CustomWeather, © 2015

See weather overviewHow to use our weather pages